Terminal Aerodrome Forecast
Issued by NWS

Home | Current Version | Previous Version | Text Only | Print | Product List | Glossary On
Versions: 1 2 3 4 5 6 7 8 9 10 11 12 13 14 15 16 17
000
FTUS43 KJKL 020520
TAFSME
TAF
KSME 020520Z 0206/0306 00000KT P6SM SCT250
      TEMPO 0206/0209 4SM BR
     FM020900 00000KT 4SM BR SCT250
      TEMPO 0210/0212 2SM BR
     FM021300 VRB06KT P6SM SCT040
     FM030000 00000KT P6SM SCT250=

USA.gov is the U.S. government's official web portal to all federal, state and local government web resources and services.